Tracking 33850 objects as of 19-Apr-2026
HD Live streaming from Space Station
objects crossing your sky now

COSMOS 2145

Track COSMOS 2145 now!
10-day predictions
COSMOS 2145 is classified as:


NORAD ID: 21301
Int'l Code: 1991-033C
Perigee: 1,410.9 km
Apogee: 1,422.8 km
Inclination: 82.6 °
Period: 114.0 minutes
Semi major axis: 7787 km
RCS: 1.1428 m2 (large)
Launch date: May 16, 1991
Source: Commonwealth of Independent States (former USSR) (CIS)
Launch site: PLESETSK MISSILE AND SPACE COMPLEX (PKMTR)
Your satellite tracking list
Your tracking list is empty




NASA's NSSDC Master Catalog

Two Line Element Set (TLE):
1 21301U 91033C   26108.62226714  .00000046  00000-0  19307-3 0  9993
2 21301  82.5700 345.3941 0007613 221.5906 138.4607 12.63214936609980
Source of the keplerian elements: AFSPC